Time,TemperatureF,DewpointF,PressureIn,WindDirection,WindDirectionDegrees,WindSpeedMPH,WindSpeedGustMPH,Humidity,HourlyPrecipIn,Conditions,Clouds,dailyrainin,SoftwareType,DateUTC
2013-02-18 00:01:00,23.4,9.9,30.07,SE,135,0.0,0.4,56,0.00,,,0.00,WUHU216HW,2013-02-18 05:01:00,
2013-02-18 00:06:00,23.2,9.7,30.08,SE,135,0.0,0.4,56,0.00,,,0.00,WUHU216HW,2013-02-18 05:06:00,
2013-02-18 00:11:00,23.4,9.9,30.07,SE,135,0.7,0.7,56,0.00,,,0.00,WUHU216HW,2013-02-18 05:11:00,
2013-02-18 00:16:00,23.6,10.1,30.07,SE,135,0.2,0.7,56,0.00,,,0.00,WUHU216HW,2013-02-18 05:16:00,
2013-02-18 00:21:00,23.6,10.1,30.08,SE,135,0.0,0.7,56,0.00,,,0.00,WUHU216HW,2013-02-18 05:21:00,
2013-02-18 00:26:00,23.4,10.4,30.07,SE,135,0.0,0.9,57,0.00,,,0.00,WUHU216HW,2013-02-18 05:26:00,
2013-02-18 00:31:00,23.4,10.7,30.08,SE,135,0.0,0.9,58,0.00,,,0.00,WUHU216HW,2013-02-18 05:31:00,
2013-02-18 00:36:00,23.4,10.7,30.08,SSW,203,0.0,0.9,58,0.00,,,0.00,WUHU216HW,2013-02-18 05:36:00,
2013-02-18 00:41:00,23.4,11.2,30.07,SSW,203,0.0,0.0,59,0.00,,,0.00,WUHU216HW,2013-02-18 05:41:00,
2013-02-18 00:46:00,23.6,11.4,30.08,SE,135,0.0,0.2,59,0.00,,,0.00,WUHU216HW,2013-02-18 05:46:00,
2013-02-18 00:51:00,23.6,10.9,30.08,SE,135,0.0,0.4,58,0.00,,,0.00,WUHU216HW,2013-02-18 05:51:00,
2013-02-18 00:56:00,23.6,11.4,30.09,SE,135,0.0,0.4,59,0.00,,,0.00,WUHU216HW,2013-02-18 05:56:00,
2013-02-18 01:01:00,23.6,11.4,30.08,SE,135,0.0,0.0,59,0.00,,,0.00,WUHU216HW,2013-02-18 06:01:00,
2013-02-18 01:06:00,23.6,10.9,30.08,SE,135,0.0,0.0,58,0.00,,,0.00,WUHU216HW,2013-02-18 06:06:00,
2013-02-18 01:11:00,23.6,10.9,30.07,SE,135,0.0,0.0,58,0.00,,,0.00,WUHU216HW,2013-02-18 06:11:00,
2013-02-18 01:16:00,23.6,10.9,30.09,SE,135,1.1,1.1,58,0.00,,,0.00,WUHU216HW,2013-02-18 06:16:00,
2013-02-18 01:21:00,23.6,10.9,30.08,SE,135,0.0,1.1,58,0.00,,,0.00,WUHU216HW,2013-02-18 06:21:00,
2013-02-18 01:26:00,23.4,10.7,30.08,SE,135,0.0,0.7,58,0.00,,,0.00,WUHU216HW,2013-02-18 06:26:00,
2013-02-18 01:31:00,23.4,11.2,30.08,SE,135,0.2,0.9,59,0.00,,,0.00,WUHU216HW,2013-02-18 06:31:00,
2013-02-18 01:36:00,23.4,11.2,30.08,SE,135,0.0,0.9,59,0.00,,,0.00,WUHU216HW,2013-02-18 06:36:00,
2013-02-18 01:41:00,23.4,11.2,30.09,SE,135,0.0,0.4,59,0.00,,,0.00,WUHU216HW,2013-02-18 06:41:00,
2013-02-18 01:46:00,23.4,11.2,30.09,SE,135,0.0,0.4,59,0.00,,,0.00,WUHU216HW,2013-02-18 06:46:00,
2013-02-18 01:51:00,23.4,11.2,30.09,SE,135,0.0,0.7,59,0.00,,,0.00,WUHU216HW,2013-02-18 06:51:00,
2013-02-18 01:56:00,23.4,11.2,30.08,SE,135,0.0,0.7,59,0.00,,,0.00,WUHU216HW,2013-02-18 06:56:00,
2013-02-18 02:01:00,23.4,11.2,30.09,SE,135,0.0,0.9,59,0.00,,,0.00,WUHU216HW,2013-02-18 07:01:00,
2013-02-18 02:06:00,23.2,11.3,30.09,WSW,248,0.0,0.9,60,0.00,,,0.00,WUHU216HW,2013-02-18 07:06:00,
2013-02-18 02:11:00,23.0,11.2,30.08,WSW,248,0.0,0.9,60,0.00,,,0.00,WUHU216HW,2013-02-18 07:11:00,
2013-02-18 02:16:00,23.2,11.7,30.09,SE,135,0.4,0.4,61,0.00,,,0.00,WUHU216HW,2013-02-18 07:16:00,
2013-02-18 02:21:00,23.2,11.7,30.08,SE,135,0.0,0.4,61,0.00,,,0.00,WUHU216HW,2013-02-18 07:21:00,
2013-02-18 02:26:00,23.0,11.5,30.09,SE,135,0.0,0.2,61,0.00,,,0.00,WUHU216HW,2013-02-18 07:26:00,
2013-02-18 02:31:00,22.9,11.3,30.09,SE,135,0.0,0.4,61,0.00,,,0.00,WUHU216HW,2013-02-18 07:31:00,
2013-02-18 02:36:00,22.7,11.2,30.09,SE,135,0.0,0.4,61,0.00,,,0.00,WUHU216HW,2013-02-18 07:36:00,
2013-02-18 02:41:00,22.7,11.9,30.05,SE,135,0.0,0.2,63,0.00,,,0.00,WUHU216HW,2013-02-18 07:41:00,
2013-02-18 02:46:00,22.5,11.7,30.05,SSW,203,0.0,0.0,63,0.00,,,0.00,WUHU216HW,2013-02-18 07:46:00,
2013-02-18 02:51:00,22.3,11.6,30.05,SSW,203,0.0,0.0,63,0.00,,,0.00,WUHU216HW,2013-02-18 07:51:00,
2013-02-18 02:56:00,22.1,11.4,30.05,SSW,203,0.0,0.0,63,0.00,,,0.00,WUHU216HW,2013-02-18 07:56:00,
2013-02-18 03:01:00,22.0,11.3,30.06,SSW,203,0.0,0.0,63,0.00,,,0.00,WUHU216HW,2013-02-18 08:01:00,
2013-02-18 03:06:00,22.0,11.3,30.05,SSW,203,0.0,0.0,63,0.00,,,0.00,WUHU216HW,2013-02-18 08:06:00,
2013-02-18 03:11:00,22.0,11.3,30.06,SSW,203,0.0,0.0,63,0.00,,,0.00,WUHU216HW,2013-02-18 08:11:00,
2013-02-18 03:16:00,21.8,11.1,30.06,SSW,203,0.0,0.0,63,0.00,,,0.00,WUHU216HW,2013-02-18 08:16:00,
2013-02-18 03:21:00,21.8,11.1,30.07,SSW,203,0.0,0.0,63,0.00,,,0.00,WUHU216HW,2013-02-18 08:21:00,
2013-02-18 03:26:00,21.6,11.3,30.05,SSW,203,0.0,0.0,64,0.00,,,0.00,WUHU216HW,2013-02-18 08:26:00,
2013-02-18 03:31:00,21.6,11.3,30.07,SSW,203,0.0,0.0,64,0.00,,,0.00,WUHU216HW,2013-02-18 08:31:00,
2013-02-18 03:36:00,21.6,11.3,30.07,SSW,203,0.0,0.0,64,0.00,,,0.00,WUHU216HW,2013-02-18 08:36:00,
2013-02-18 03:41:00,21.4,11.1,30.06,SSW,203,0.0,0.0,64,0.00,,,0.00,WUHU216HW,2013-02-18 08:41:00,
2013-02-18 03:46:00,21.2,10.9,30.06,SSW,203,0.0,0.0,64,0.00,,,0.00,WUHU216HW,2013-02-18 08:46:00,
2013-02-18 03:51:00,21.2,10.9,30.07,SSW,203,0.0,0.0,64,0.00,,,0.00,WUHU216HW,2013-02-18 08:51:00,
2013-02-18 03:56:00,21.2,11.3,30.07,SSW,203,0.0,0.0,65,0.00,,,0.00,WUHU216HW,2013-02-18 08:56:00,
2013-02-18 04:01:00,21.1,11.1,30.06,SSW,203,0.0,0.0,65,0.00,,,0.00,WUHU216HW,2013-02-18 09:01:00,
2013-02-18 04:06:00,21.1,11.1,30.07,SSW,203,0.0,0.0,65,0.00,,,0.00,WUHU216HW,2013-02-18 09:06:00,
2013-02-18 04:11:00,20.9,10.9,30.06,SSW,203,0.0,0.0,65,0.00,,,0.00,WUHU216HW,2013-02-18 09:11:00,
2013-02-18 04:16:00,20.7,10.7,30.08,SSW,203,0.0,0.0,65,0.00,,,0.00,WUHU216HW,2013-02-18 09:16:00,
2013-02-18 04:21:00,20.7,10.7,30.07,SSW,203,0.0,0.0,65,0.00,,,0.00,WUHU216HW,2013-02-18 09:21:00,
2013-02-18 04:26:00,20.7,10.7,30.07,SSW,203,0.0,0.0,65,0.00,,,0.00,WUHU216HW,2013-02-18 09:26:00,
2013-02-18 04:31:00,20.5,10.5,30.06,SE,135,0.0,0.0,65,0.00,,,0.00,WUHU216HW,2013-02-18 09:31:00,
2013-02-18 04:36:00,20.5,10.5,30.07,SSE,158,0.0,0.0,65,0.00,,,0.00,WUHU216HW,2013-02-18 09:36:00,
2013-02-18 04:41:00,20.5,10.5,30.07,SSE,158,0.0,0.0,65,0.00,,,0.00,WUHU216HW,2013-02-18 09:41:00,
2013-02-18 04:46:00,20.3,10.7,30.07,SSE,158,0.0,0.0,66,0.00,,,0.00,WUHU216HW,2013-02-18 09:46:00,
2013-02-18 04:51:00,20.3,10.7,30.08,SSE,158,0.0,0.0,66,0.00,,,0.00,WUHU216HW,2013-02-18 09:51:00,
2013-02-18 04:56:00,20.2,10.9,30.09,SSE,158,0.0,0.0,67,0.00,,,0.00,WUHU216HW,2013-02-18 09:56:00,
2013-02-18 05:01:00,20.0,10.7,30.09,SSE,158,0.0,0.0,67,0.00,,,0.00,WUHU216HW,2013-02-18 10:01:00,
2013-02-18 05:06:00,20.0,10.7,30.08,SSE,158,0.0,0.0,67,0.00,,,0.00,WUHU216HW,2013-02-18 10:06:00,
2013-02-18 05:11:00,20.0,10.7,30.08,SSE,158,0.0,0.0,67,0.00,,,0.00,WUHU216HW,2013-02-18 10:11:00,
2013-02-18 05:16:00,20.0,10.7,30.07,SSE,158,0.0,0.0,67,0.00,,,0.00,WUHU216HW,2013-02-18 10:16:00,
2013-02-18 05:21:00,20.0,10.7,30.08,SSE,158,0.0,0.0,67,0.00,,,0.00,WUHU216HW,2013-02-18 10:21:00,
2013-02-18 05:26:00,20.0,10.7,30.09,SSE,158,0.0,0.0,67,0.00,,,0.00,WUHU216HW,2013-02-18 10:26:00,
2013-02-18 05:31:00,20.0,10.7,30.08,SSE,158,0.0,0.0,67,0.00,,,0.00,WUHU216HW,2013-02-18 10:31:00,
2013-02-18 05:36:00,20.0,11.0,30.09,SSE,158,0.0,0.0,68,0.00,,,0.00,WUHU216HW,2013-02-18 10:36:00,
2013-02-18 05:41:00,20.0,11.3,30.09,SSE,158,0.0,0.0,69,0.00,,,0.00,WUHU216HW,2013-02-18 10:41:00,
2013-02-18 05:46:00,20.0,11.7,30.10,SSE,158,0.0,0.2,70,0.00,,,0.00,WUHU216HW,2013-02-18 10:46:00,
2013-02-18 05:51:00,20.3,11.7,30.09,SSE,158,0.0,0.2,69,0.00,,,0.00,WUHU216HW,2013-02-18 10:51:00,
2013-02-18 05:56:00,20.7,12.1,30.09,SSE,158,0.0,0.0,69,0.00,,,0.00,WUHU216HW,2013-02-18 10:56:00,
2013-02-18 06:01:00,20.9,12.2,30.09,SSE,158,0.0,0.0,69,0.00,,,0.00,WUHU216HW,2013-02-18 11:01:00,
2013-02-18 06:07:00,21.2,12.6,30.09,SSE,158,0.0,0.0,69,0.00,,,0.00,WUHU216HW,2013-02-18 11:07:00,
2013-02-18 06:12:00,21.4,12.8,30.10,SSE,158,0.0,0.0,69,0.00,,,0.00,WUHU216HW,2013-02-18 11:12:00,
2013-02-18 06:17:00,22.0,13.3,30.08,SSE,158,0.0,0.0,69,0.00,,,0.00,WUHU216HW,2013-02-18 11:17:00,
2013-02-18 06:22:00,22.1,13.5,30.09,SSE,158,0.0,0.0,69,0.00,,,0.00,WUHU216HW,2013-02-18 11:22:00,
2013-02-18 06:27:00,22.3,13.3,30.10,SSE,158,0.0,0.0,68,0.00,,,0.00,WUHU216HW,2013-02-18 11:27:00,
2013-02-18 06:32:00,22.5,13.5,30.10,SSE,158,0.0,0.0,68,0.00,,,0.00,WUHU216HW,2013-02-18 11:32:00,
2013-02-18 06:37:00,22.5,13.5,30.10,SSE,158,0.0,0.0,68,0.00,,,0.00,WUHU216HW,2013-02-18 11:37:00,
2013-02-18 06:42:00,22.5,13.5,30.10,SSE,158,0.0,0.0,68,0.00,,,0.00,WUHU216HW,2013-02-18 11:42:00,
2013-02-18 06:47:00,22.9,13.9,30.10,SSE,158,0.0,0.0,68,0.00,,,0.00,WUHU216HW,2013-02-18 11:47:00,
2013-02-18 06:52:00,23.2,13.9,30.09,SSE,158,0.0,0.0,67,0.00,,,0.00,WUHU216HW,2013-02-18 11:52:00,
2013-02-18 06:57:00,23.4,13.7,30.10,SSE,158,0.0,0.0,66,0.00,,,0.00,WUHU216HW,2013-02-18 11:57:00,
2013-02-18 07:02:00,23.2,13.5,30.11,SSE,158,0.0,0.0,66,0.00,,,0.00,WUHU216HW,2013-02-18 12:02:00,
2013-02-18 07:07:00,23.0,13.3,30.10,SSE,158,0.0,0.0,66,0.00,,,0.00,WUHU216HW,2013-02-18 12:07:00,
2013-02-18 07:12:00,23.0,13.7,30.10,SSE,158,0.0,0.0,67,0.00,,,0.00,WUHU216HW,2013-02-18 12:12:00,
2013-02-18 07:17:00,22.9,13.1,30.10,SSE,158,0.0,0.0,66,0.00,,,0.00,WUHU216HW,2013-02-18 12:17:00,
2013-02-18 07:22:00,22.7,13.3,30.10,SE,135,0.0,0.0,67,0.00,,,0.00,WUHU216HW,2013-02-18 12:22:00,
2013-02-18 07:27:00,22.3,13.0,30.10,SE,135,0.0,0.0,67,0.00,,,0.00,WUHU216HW,2013-02-18 12:27:00,
2013-02-18 07:32:00,22.5,13.1,30.10,SE,135,0.0,0.0,67,0.00,,,0.00,WUHU216HW,2013-02-18 12:32:00,
2013-02-18 07:37:00,22.7,13.3,30.11,SE,135,0.0,0.2,67,0.00,,,0.00,WUHU216HW,2013-02-18 12:37:00,
2013-02-18 07:42:00,22.7,13.3,30.10,SE,135,0.0,0.2,67,0.00,,,0.00,WUHU216HW,2013-02-18 12:42:00,
2013-02-18 07:47:00,22.7,13.7,30.11,SE,135,0.0,0.2,68,0.00,,,0.00,WUHU216HW,2013-02-18 12:47:00,
2013-02-18 07:52:00,22.7,13.7,30.11,SE,135,0.0,0.2,68,0.00,,,0.00,WUHU216HW,2013-02-18 12:52:00,
2013-02-18 07:57:00,22.5,13.5,30.11,SE,135,0.0,0.0,68,0.00,,,0.00,WUHU216HW,2013-02-18 12:57:00,
2013-02-18 08:02:00,22.5,13.5,30.12,SE,135,0.0,0.0,68,0.00,,,0.00,WUHU216HW,2013-02-18 13:02:00,
2013-02-18 08:07:00,22.5,13.9,30.12,SE,135,0.0,0.0,69,0.00,,,0.00,WUHU216HW,2013-02-18 13:07:00,
2013-02-18 08:12:00,22.7,14.0,30.11,SE,135,0.0,0.0,69,0.00,,,0.00,WUHU216HW,2013-02-18 13:12:00,
2013-02-18 08:17:00,22.7,13.7,30.12,SE,135,0.0,0.0,68,0.00,,,0.00,WUHU216HW,2013-02-18 13:17:00,
2013-02-18 08:22:00,22.9,13.9,30.12,SE,135,0.0,0.0,68,0.00,,,0.00,WUHU216HW,2013-02-18 13:22:00,
2013-02-18 08:27:00,23.2,14.6,30.12,SE,135,0.0,0.0,69,0.00,,,0.00,WUHU216HW,2013-02-18 13:27:00,
2013-02-18 08:32:00,23.4,14.8,30.11,SE,135,0.0,0.0,69,0.00,,,0.00,WUHU216HW,2013-02-18 13:32:00,
2013-02-18 08:37:00,23.9,15.2,30.13,SE,135,0.0,0.0,69,0.00,,,0.00,WUHU216HW,2013-02-18 13:37:00,
2013-02-18 08:42:00,24.5,15.8,30.13,SE,135,0.0,0.0,69,0.00,,,0.00,WUHU216HW,2013-02-18 13:42:00,
2013-02-18 08:47:00,25.0,16.2,30.12,SE,135,0.0,0.0,69,0.00,,,0.00,WUHU216HW,2013-02-18 13:47:00,
2013-02-18 08:52:00,25.6,16.7,30.12,SE,135,0.0,0.2,69,0.00,,,0.00,WUHU216HW,2013-02-18 13:52:00,
2013-02-18 08:57:00,26.3,17.5,30.12,SE,135,0.0,0.4,69,0.00,,,0.00,WUHU216HW,2013-02-18 13:57:00,
2013-02-18 09:02:00,26.8,17.6,30.13,SE,135,0.0,0.4,68,0.00,,,0.00,WUHU216HW,2013-02-18 14:02:00,
2013-02-18 09:07:00,27.7,18.2,30.12,SE,135,0.0,0.0,67,0.00,,,0.00,WUHU216HW,2013-02-18 14:07:00,
2013-02-18 09:12:00,28.4,18.5,30.12,SE,135,0.0,0.0,66,0.00,,,0.00,WUHU216HW,2013-02-18 14:12:00,
2013-02-18 09:17:00,29.3,19.4,30.13,SE,135,0.0,0.0,66,0.00,,,0.00,WUHU216HW,2013-02-18 14:17:00,
2013-02-18 09:22:00,30.4,20.3,30.13,SE,135,0.0,0.0,66,0.00,,,0.00,WUHU216HW,2013-02-18 14:22:00,
2013-02-18 09:27:00,31.3,19.8,30.13,SSE,158,0.0,0.0,62,0.00,,,0.00,WUHU216HW,2013-02-18 14:27:00,
2013-02-18 09:32:00,32.0,20.9,30.14,SSW,203,0.0,0.0,63,0.00,,,0.00,WUHU216HW,2013-02-18 14:32:00,
2013-02-18 09:37:00,32.0,20.5,30.14,SSW,203,0.0,0.0,62,0.00,,,0.00,WUHU216HW,2013-02-18 14:37:00,
2013-02-18 09:42:00,32.4,20.9,30.13,SSW,203,0.0,0.0,62,0.00,,,0.00,WUHU216HW,2013-02-18 14:42:00,
2013-02-18 09:47:00,32.6,21.0,30.14,SSW,203,0.0,0.0,62,0.00,,,0.00,WUHU216HW,2013-02-18 14:47:00,
2013-02-18 09:52:00,32.8,20.8,30.12,SSW,203,0.0,0.0,61,0.00,,,0.00,WUHU216HW,2013-02-18 14:52:00,
2013-02-18 09:57:00,32.9,21.0,30.14,SSW,203,0.0,0.0,61,0.00,,,0.00,WUHU216HW,2013-02-18 14:57:00,
2013-02-18 10:02:00,33.5,19.4,30.13,SE,135,0.4,1.8,56,0.00,,,0.00,WUHU216HW,2013-02-18 15:02:00,
2013-02-18 10:07:00,34.2,20.9,30.14,West,270,0.0,1.8,58,0.00,,,0.00,WUHU216HW,2013-02-18 15:07:00,
2013-02-18 10:12:00,34.6,19.5,30.13,WSW,248,0.9,1.1,54,0.00,,,0.00,WUHU216HW,2013-02-18 15:12:00,
2013-02-18 10:17:00,34.9,19.9,30.13,SE,135,0.4,1.1,54,0.00,,,0.00,WUHU216HW,2013-02-18 15:17:00,
2013-02-18 10:22:00,35.3,20.7,30.12,SSW,203,0.0,1.1,55,0.00,,,0.00,WUHU216HW,2013-02-18 15:22:00,
2013-02-18 10:27:00,35.6,21.1,30.12,NW,315,0.0,0.4,55,0.00,,,0.00,WUHU216HW,2013-02-18 15:27:00,
2013-02-18 10:32:00,35.8,19.9,30.14,WSW,248,1.1,1.1,52,0.00,,,0.00,WUHU216HW,2013-02-18 15:32:00,
2013-02-18 10:37:00,36.2,21.5,30.13,WSW,248,0.0,1.1,55,0.00,,,0.00,WUHU216HW,2013-02-18 15:37:00,
2013-02-18 10:42:00,36.7,20.7,30.14,East,90,0.9,0.9,52,0.00,,,0.00,WUHU216HW,2013-02-18 15:42:00,
2013-02-18 10:47:00,37.6,20.2,30.14,East,90,0.9,1.1,49,0.00,,,0.00,WUHU216HW,2013-02-18 15:47:00,
2013-02-18 10:52:00,38.3,20.3,30.13,WNW,293,0.9,1.1,48,0.00,,,0.00,WUHU216HW,2013-02-18 15:52:00,
2013-02-18 10:57:00,38.3,20.8,30.14,WNW,293,0.4,0.9,49,0.00,,,0.00,WUHU216HW,2013-02-18 15:57:00,
2013-02-18 11:02:00,38.5,22.0,30.13,WNW,293,0.2,0.9,51,0.00,,,0.00,WUHU216HW,2013-02-18 16:02:00,
2013-02-18 11:07:00,39.2,21.1,30.13,West,270,0.9,1.1,48,0.00,,,0.00,WUHU216HW,2013-02-18 16:07:00,
2013-02-18 11:12:00,39.4,20.3,30.13,WSW,248,0.9,1.1,46,0.00,,,0.00,WUHU216HW,2013-02-18 16:12:00,
2013-02-18 11:17:00,39.2,21.6,30.13,WSW,248,0.0,1.1,49,0.00,,,0.00,WUHU216HW,2013-02-18 16:17:00,
2013-02-18 11:22:00,39.6,21.4,30.12,WNW,293,1.8,1.8,48,0.00,,,0.00,WUHU216HW,2013-02-18 16:22:00,
2013-02-18 11:27:00,39.8,21.6,30.13,West,270,0.9,1.8,48,0.00,,,0.00,WUHU216HW,2013-02-18 16:27:00,
2013-02-18 11:32:00,40.1,21.4,30.13,WSW,248,0.4,1.3,47,0.00,,,0.00,WUHU216HW,2013-02-18 16:32:00,
2013-02-18 11:37:00,40.3,21.5,30.13,West,270,0.4,1.8,47,0.00,,,0.00,WUHU216HW,2013-02-18 16:37:00,
2013-02-18 11:42:00,40.3,21.1,30.12,West,270,1.3,1.8,46,0.00,,,0.00,WUHU216HW,2013-02-18 16:42:00,
2013-02-18 11:48:00,40.7,21.9,30.12,ESE,113,0.9,1.8,47,0.00,,,0.00,WUHU216HW,2013-02-18 16:48:00,
2013-02-18 11:53:00,41.0,21.7,30.12,West,270,0.9,1.8,46,0.00,,,0.00,WUHU216HW,2013-02-18 16:53:00,
2013-02-18 11:58:00,41.0,20.1,30.11,SSE,158,2.0,2.0,43,0.00,,,0.00,WUHU216HW,2013-02-18 16:58:00,
2013-02-18 12:03:00,41.0,20.6,30.12,South,180,1.1,2.2,44,0.00,,,0.00,WUHU216HW,2013-02-18 17:03:00,
2013-02-18 12:08:00,41.2,20.3,30.12,ESE,113,0.9,2.2,43,0.00,,,0.00,WUHU216HW,2013-02-18 17:08:00,
2013-02-18 12:13:00,41.4,20.4,30.12,SW,225,1.1,2.2,43,0.00,,,0.00,WUHU216HW,2013-02-18 17:13:00,
2013-02-18 12:18:00,41.4,21.5,30.12,West,270,0.2,2.2,45,0.00,,,0.00,WUHU216HW,2013-02-18 17:18:00,
2013-02-18 12:23:00,42.1,22.1,30.12,WNW,293,2.5,2.5,45,0.00,,,0.00,WUHU216HW,2013-02-18 17:23:00,
2013-02-18 12:28:00,42.1,20.6,30.11,WNW,293,0.4,2.5,42,0.00,,,0.00,WUHU216HW,2013-02-18 17:28:00,
2013-02-18 12:33:00,42.1,21.6,30.12,WNW,293,1.1,1.8,44,0.00,,,0.00,WUHU216HW,2013-02-18 17:33:00,
2013-02-18 12:38:00,42.7,20.0,30.12,NNE,23,1.8,1.8,40,0.00,,,0.00,WUHU216HW,2013-02-18 17:38:00,
2013-02-18 12:43:00,42.7,21.1,30.12,SSE,158,1.8,1.8,42,0.00,,,0.00,WUHU216HW,2013-02-18 17:43:00,
2013-02-18 12:48:00,42.8,19.5,30.11,West,270,0.4,1.8,39,0.00,,,0.00,WUHU216HW,2013-02-18 17:48:00,
2013-02-18 12:53:00,43.6,21.3,30.11,WNW,293,0.4,1.6,41,0.00,,,0.00,WUHU216HW,2013-02-18 17:53:00,
2013-02-18 12:58:00,44.3,22.0,30.10,WNW,293,1.1,1.6,41,0.00,,,0.00,WUHU216HW,2013-02-18 17:58:00,
2013-02-18 13:03:00,44.6,19.8,30.10,SE,135,1.1,2.0,37,0.00,,,0.00,WUHU216HW,2013-02-18 18:03:00,
2013-02-18 13:08:00,45.0,22.2,30.10,West,270,0.2,2.0,40,0.00,,,0.00,WUHU216HW,2013-02-18 18:08:00,
2013-02-18 13:13:00,45.9,22.2,30.10,South,180,0.9,1.1,39,0.00,,,0.00,WUHU216HW,2013-02-18 18:13:00,
2013-02-18 13:18:00,48.1,24.8,30.09,NE,45,0.2,0.9,40,0.00,,,0.00,WUHU216HW,2013-02-18 18:18:00,
2013-02-18 13:23:00,50.0,26.6,30.09,SSE,158,0.4,0.7,40,0.00,,,0.00,WUHU216HW,2013-02-18 18:23:00,
2013-02-18 13:28:00,52.6,27.5,30.10,NW,315,0.0,0.7,38,0.00,,,0.00,WUHU216HW,2013-02-18 18:28:00,
2013-02-18 13:33:00,52.2,24.5,30.08,West,270,1.1,1.1,34,0.00,,,0.00,WUHU216HW,2013-02-18 18:33:00,
2013-02-18 13:38:00,50.2,21.3,30.08,West,270,1.6,1.6,32,0.00,,,0.00,WUHU216HW,2013-02-18 18:38:00,
2013-02-18 13:43:00,47.7,21.9,30.08,WNW,293,0.9,1.6,36,0.00,,,0.00,WUHU216HW,2013-02-18 18:43:00,
2013-02-18 13:48:00,47.2,22.1,30.09,SSW,203,1.1,2.0,37,0.00,,,0.00,WUHU216HW,2013-02-18 18:48:00,
2013-02-18 13:53:00,47.2,22.7,30.09,WSW,248,0.7,2.2,38,0.00,,,0.00,WUHU216HW,2013-02-18 18:53:00,
2013-02-18 13:58:00,47.7,23.2,30.08,South,180,0.4,2.2,38,0.00,,,0.00,WUHU216HW,2013-02-18 18:58:00,
2013-02-18 14:03:00,48.8,24.1,30.09,WSW,248,0.9,1.1,38,0.00,,,0.00,WUHU216HW,2013-02-18 19:03:00,
2013-02-18 14:08:00,48.8,24.1,30.09,WSW,248,0.4,1.1,38,0.00,,,0.00,WUHU216HW,2013-02-18 19:08:00,
2013-02-18 14:13:00,48.1,22.2,30.08,SSW,203,0.4,1.8,36,0.00,,,0.00,WUHU216HW,2013-02-18 19:13:00,
2013-02-18 14:18:00,47.9,22.7,30.08,NE,45,0.2,2.5,37,0.00,,,0.00,WUHU216HW,2013-02-18 19:18:00,
2013-02-18 14:23:00,47.9,22.7,30.09,South,180,1.1,2.5,37,0.00,,,0.00,WUHU216HW,2013-02-18 19:23:00,
2013-02-18 14:28:00,48.4,22.5,30.09,SSW,203,1.1,1.8,36,0.00,,,0.00,WUHU216HW,2013-02-18 19:28:00,
2013-02-18 14:33:00,48.4,23.9,30.07,SE,135,0.4,2.7,38,0.00,,,0.00,WUHU216HW,2013-02-18 19:33:00,
2013-02-18 14:38:00,48.8,22.9,30.08,SSW,203,0.9,4.0,36,0.00,,,0.00,WUHU216HW,2013-02-18 19:38:00,
2013-02-18 14:43:00,49.3,24.7,30.07,SE,135,1.1,4.0,38,0.00,,,0.00,WUHU216HW,2013-02-18 19:43:00,
2013-02-18 14:48:00,49.3,23.3,30.07,SE,135,1.1,1.8,36,0.00,,,0.00,WUHU216HW,2013-02-18 19:48:00,
2013-02-18 14:53:00,49.5,24.1,30.08,ESE,113,2.7,2.7,37,0.00,,,0.00,WUHU216HW,2013-02-18 19:53:00,
2013-02-18 14:58:00,49.3,22.6,30.13,SE,135,1.1,2.7,35,0.00,,,0.00,WUHU216HW,2013-02-18 19:58:00,
2013-02-18 15:03:00,49.5,24.9,30.12,SSW,203,0.9,1.3,38,0.00,,,0.00,WUHU216HW,2013-02-18 20:03:00,
2013-02-18 15:08:00,50.6,25.7,30.12,ESE,113,1.8,3.6,38,0.00,,,0.00,WUHU216HW,2013-02-18 20:08:00,
2013-02-18 15:13:00,50.8,24.6,30.11,NE,45,1.6,3.6,36,0.00,,,0.00,WUHU216HW,2013-02-18 20:13:00,
2013-02-18 15:18:00,49.3,23.3,30.10,SE,135,2.2,2.2,36,0.00,,,0.00,WUHU216HW,2013-02-18 20:18:00,
2013-02-18 15:23:00,47.5,23.0,30.12,SW,225,2.0,3.4,38,0.00,,,0.00,WUHU216HW,2013-02-18 20:23:00,
2013-02-18 15:28:00,46.8,22.4,30.12,SSE,158,1.1,3.4,38,0.00,,,0.00,WUHU216HW,2013-02-18 20:28:00,
2013-02-18 15:34:00,46.6,22.2,30.11,SE,135,3.1,3.4,38,0.00,,,0.00,WUHU216HW,2013-02-18 20:34:00,
2013-02-18 15:39:00,47.0,23.2,30.11,SSE,158,0.9,3.8,39,0.00,,,0.00,WUHU216HW,2013-02-18 20:39:00,
2013-02-18 15:44:00,47.7,23.9,30.11,WNW,293,0.4,3.8,39,0.00,,,0.00,WUHU216HW,2013-02-18 20:44:00,
2013-02-18 15:49:00,49.3,24.7,30.11,ESE,113,2.2,2.5,38,0.00,,,0.00,WUHU216HW,2013-02-18 20:49:00,
2013-02-18 15:54:00,51.3,27.1,30.10,ESE,113,2.0,2.5,39,0.00,,,0.00,WUHU216HW,2013-02-18 20:54:00,
2013-02-18 15:59:00,50.9,23.3,30.11,SE,135,1.1,2.5,34,0.00,,,0.00,WUHU216HW,2013-02-18 20:59:00,
2013-02-18 16:04:00,50.6,23.1,30.10,North,0,1.1,2.5,34,0.00,,,0.00,WUHU216HW,2013-02-18 21:04:00,
2013-02-18 16:09:00,49.7,23.6,30.10,WSW,248,1.8,1.8,36,0.00,,,0.00,WUHU216HW,2013-02-18 21:09:00,
2013-02-18 16:14:00,48.2,22.3,30.11,SSW,203,2.5,2.5,36,0.00,,,0.00,WUHU216HW,2013-02-18 21:14:00,
2013-02-18 16:19:00,47.2,22.7,30.10,SSE,158,1.8,2.5,38,0.00,,,0.00,WUHU216HW,2013-02-18 21:19:00,
2013-02-18 16:24:00,47.3,22.9,30.10,SSE,158,0.0,1.8,38,0.00,,,0.00,WUHU216HW,2013-02-18 21:24:00,
2013-02-18 16:29:00,47.9,23.4,30.11,SE,135,1.3,1.3,38,0.00,,,0.00,WUHU216HW,2013-02-18 21:29:00,
2013-02-18 16:34:00,47.9,23.4,30.11,SE,135,1.1,2.5,38,0.00,,,0.00,WUHU216HW,2013-02-18 21:34:00,
2013-02-18 16:39:00,47.5,23.0,30.11,SE,135,1.3,2.5,38,0.00,,,0.00,WUHU216HW,2013-02-18 21:39:00,
2013-02-18 16:44:00,47.2,22.7,30.10,ESE,113,1.1,2.2,38,0.00,,,0.00,WUHU216HW,2013-02-18 21:44:00,
2013-02-18 16:49:00,46.8,22.4,30.10,SE,135,2.5,2.5,38,0.00,,,0.00,WUHU216HW,2013-02-18 21:49:00,
2013-02-18 16:54:00,46.4,22.8,30.10,WSW,248,0.4,3.6,39,0.00,,,0.00,WUHU216HW,2013-02-18 21:54:00,
2013-02-18 16:59:00,46.3,22.6,30.11,SE,135,0.4,3.6,39,0.00,,,0.00,WUHU216HW,2013-02-18 21:59:00,
2013-02-18 17:04:00,46.8,23.8,30.10,SE,135,1.8,1.8,40,0.00,,,0.00,WUHU216HW,2013-02-18 22:04:00,
2013-02-18 17:09:00,47.3,24.2,30.11,SE,135,0.0,2.5,40,0.00,,,0.00,WUHU216HW,2013-02-18 22:09:00,
2013-02-18 17:14:00,48.1,24.2,30.11,South,180,0.0,2.5,39,0.00,,,0.00,WUHU216HW,2013-02-18 22:14:00,
2013-02-18 17:19:00,48.2,23.7,30.10,SE,135,0.9,1.8,38,0.00,,,0.00,WUHU216HW,2013-02-18 22:19:00,
2013-02-18 17:24:00,47.3,22.9,30.10,SSW,203,0.7,2.2,38,0.00,,,0.00,WUHU216HW,2013-02-18 22:24:00,
2013-02-18 17:29:00,47.2,23.4,30.11,ESE,113,0.4,2.2,39,0.00,,,0.00,WUHU216HW,2013-02-18 22:29:00,
2013-02-18 17:34:00,47.2,23.4,30.09,SE,135,0.4,1.1,39,0.00,,,0.00,WUHU216HW,2013-02-18 22:34:00,
2013-02-18 17:39:00,46.6,22.9,30.10,SE,135,0.7,1.1,39,0.00,,,0.00,WUHU216HW,2013-02-18 22:39:00,
2013-02-18 17:44:00,45.7,22.1,30.10,SE,135,0.0,1.1,39,0.00,,,0.00,WUHU216HW,2013-02-18 22:44:00,
2013-02-18 17:49:00,45.0,22.2,30.10,SSE,158,0.0,1.1,40,0.00,,,0.00,WUHU216HW,2013-02-18 22:49:00,
2013-02-18 17:54:00,44.3,22.0,30.10,ESE,113,0.2,0.9,41,0.00,,,0.00,WUHU216HW,2013-02-18 22:54:00,
2013-02-18 17:59:00,43.6,21.3,30.11,SW,225,0.4,0.9,41,0.00,,,0.00,WUHU216HW,2013-02-18 22:59:00,
2013-02-18 18:04:00,42.8,21.2,30.10,SE,135,0.0,0.7,42,0.00,,,0.00,WUHU216HW,2013-02-18 23:04:00,
2013-02-18 18:09:00,42.5,21.4,30.09,SE,135,0.0,0.7,43,0.00,,,0.00,WUHU216HW,2013-02-18 23:09:00,
2013-02-18 18:14:00,41.9,21.5,30.10,NE,45,0.2,1.1,44,0.00,,,0.00,WUHU216HW,2013-02-18 23:14:00,
2013-02-18 18:19:00,41.4,21.0,30.09,ESE,113,0.0,1.1,44,0.00,,,0.00,WUHU216HW,2013-02-18 23:19:00,
2013-02-18 18:24:00,41.2,20.8,30.10,ESE,113,0.0,0.9,44,0.00,,,0.00,WUHU216HW,2013-02-18 23:24:00,
2013-02-18 18:29:00,40.7,20.8,30.10,ESE,113,0.0,0.9,45,0.00,,,0.00,WUHU216HW,2013-02-18 23:29:00,
2013-02-18 18:34:00,40.5,20.7,30.11,ESE,113,0.0,0.4,45,0.00,,,0.00,WUHU216HW,2013-02-18 23:34:00,
2013-02-18 18:39:00,40.1,20.3,30.10,ESE,113,0.0,0.0,45,0.00,,,0.00,WUHU216HW,2013-02-18 23:39:00,
2013-02-18 18:44:00,40.0,20.7,30.10,ESE,113,0.4,0.4,46,0.00,,,0.00,WUHU216HW,2013-02-18 23:44:00,
2013-02-18 18:49:00,39.6,20.3,30.11,ESE,113,0.0,0.4,46,0.00,,,0.00,WUHU216HW,2013-02-18 23:49:00,
2013-02-18 18:54:00,39.2,19.5,30.10,ESE,113,0.0,0.0,45,0.00,,,0.00,WUHU216HW,2013-02-18 23:54:00,
2013-02-18 18:59:00,39.1,19.9,30.10,ESE,113,0.0,0.0,46,0.00,,,0.00,WUHU216HW,2013-02-18 23:59:00,
2013-02-18 19:04:00,38.5,19.5,30.10,ESE,113,0.0,0.0,46,0.00,,,0.00,WUHU216HW,2013-02-19 00:04:00,
2013-02-18 19:09:00,38.5,19.5,30.10,ESE,113,0.0,0.0,46,0.00,,,0.00,WUHU216HW,2013-02-19 00:09:00,
2013-02-18 19:14:00,38.2,19.6,30.10,ESE,113,0.0,0.0,47,0.00,,,0.00,WUHU216HW,2013-02-19 00:14:00,
2013-02-18 19:19:00,37.8,19.3,30.09,ESE,113,0.0,0.2,47,0.00,,,0.00,WUHU216HW,2013-02-19 00:19:00,
2013-02-18 19:24:00,37.6,19.1,30.10,East,90,0.0,0.9,47,0.00,,,0.00,WUHU216HW,2013-02-19 00:24:00,
2013-02-18 19:29:00,37.4,19.4,30.10,ESE,113,0.0,0.9,48,0.00,,,0.00,WUHU216HW,2013-02-19 00:29:00,
2013-02-18 19:34:00,37.3,19.4,30.10,ESE,113,0.0,0.2,48,0.00,,,0.00,WUHU216HW,2013-02-19 00:34:00,
2013-02-18 19:39:00,37.1,19.2,30.10,ESE,113,0.0,0.0,48,0.00,,,0.00,WUHU216HW,2013-02-19 00:39:00,
2013-02-18 19:45:00,36.9,19.5,30.09,ESE,113,0.0,0.4,49,0.00,,,0.00,WUHU216HW,2013-02-19 00:45:00,
2013-02-18 19:50:00,36.5,19.2,30.09,SSE,158,0.0,0.4,49,0.00,,,0.00,WUHU216HW,2013-02-19 00:50:00,
2013-02-18 19:55:00,36.4,19.5,30.10,SSE,158,0.0,0.0,50,0.00,,,0.00,WUHU216HW,2013-02-19 00:55:00,
2013-02-18 20:00:00,36.4,19.5,30.10,SSE,158,0.0,0.0,50,0.00,,,0.00,WUHU216HW,2013-02-19 01:00:00,
2013-02-18 20:05:00,36.4,19.5,30.09,SSE,158,0.0,0.0,50,0.00,,,0.00,WUHU216HW,2013-02-19 01:05:00,
2013-02-18 20:10:00,36.4,19.5,30.09,SSE,158,0.0,0.0,50,0.00,,,0.00,WUHU216HW,2013-02-19 01:10:00,
2013-02-18 20:15:00,36.4,19.5,30.09,SSE,158,0.0,0.0,50,0.00,,,0.00,WUHU216HW,2013-02-19 01:15:00,
2013-02-18 20:20:00,36.4,19.5,30.09,SSE,158,0.0,0.0,50,0.00,,,0.00,WUHU216HW,2013-02-19 01:20:00,
2013-02-18 20:25:00,36.4,19.5,30.09,SSE,158,0.0,0.0,50,0.00,,,0.00,WUHU216HW,2013-02-19 01:25:00,
2013-02-18 20:30:00,36.2,19.8,30.09,SSE,158,0.2,0.2,51,0.00,,,0.00,WUHU216HW,2013-02-19 01:30:00,
2013-02-18 20:35:00,36.0,19.6,30.08,SSE,158,0.0,0.2,51,0.00,,,0.00,WUHU216HW,2013-02-19 01:35:00,
2013-02-18 20:40:00,35.8,19.5,30.09,SSE,158,0.0,0.0,51,0.00,,,0.00,WUHU216HW,2013-02-19 01:40:00,
2013-02-18 20:45:00,35.6,19.4,30.08,SSE,158,0.0,0.0,51,0.00,,,0.00,WUHU216HW,2013-02-19 01:45:00,
2013-02-18 20:50:00,35.5,20.0,30.09,ESE,113,0.2,0.7,53,0.00,,,0.00,WUHU216HW,2013-02-19 01:50:00,
2013-02-18 20:55:00,35.6,20.2,30.10,East,90,0.0,0.9,53,0.00,,,0.00,WUHU216HW,2013-02-19 01:55:00,
2013-02-18 21:00:00,35.8,20.3,30.09,NE,45,0.0,0.9,53,0.00,,,0.00,WUHU216HW,2013-02-19 02:00:00,
2013-02-18 21:05:00,35.8,20.3,30.10,ENE,68,0.0,0.4,53,0.00,,,0.00,WUHU216HW,2013-02-19 02:05:00,
2013-02-18 21:10:00,36.0,21.0,30.09,NE,45,0.0,0.9,54,0.00,,,0.00,WUHU216HW,2013-02-19 02:10:00,
2013-02-18 21:15:00,36.4,21.2,30.09,SE,135,0.0,1.1,54,0.00,,,0.00,WUHU216HW,2013-02-19 02:15:00,
2013-02-18 21:20:00,36.4,20.9,30.09,SE,135,0.2,1.1,53,0.00,,,0.00,WUHU216HW,2013-02-19 02:20:00,
2013-02-18 21:25:00,36.2,20.7,30.09,SE,135,0.7,1.1,53,0.00,,,0.00,WUHU216HW,2013-02-19 02:25:00,
2013-02-18 21:30:00,36.0,20.5,30.09,SE,135,0.0,0.7,53,0.00,,,0.00,WUHU216HW,2013-02-19 02:30:00,
2013-02-18 21:35:00,35.8,20.8,30.09,SE,135,0.0,0.7,54,0.00,,,0.00,WUHU216HW,2013-02-19 02:35:00,
2013-02-18 21:40:00,35.6,20.6,30.08,SE,135,0.0,0.7,54,0.00,,,0.00,WUHU216HW,2013-02-19 02:40:00,
2013-02-18 21:45:00,35.6,20.6,30.09,SE,135,0.0,0.4,54,0.00,,,0.00,WUHU216HW,2013-02-19 02:45:00,
2013-02-18 21:50:00,35.6,21.1,30.08,ESE,113,0.0,1.3,55,0.00,,,0.00,WUHU216HW,2013-02-19 02:50:00,
2013-02-18 21:55:00,35.6,21.1,30.08,ESE,113,0.0,1.3,55,0.00,,,0.00,WUHU216HW,2013-02-19 02:55:00,
2013-02-18 22:00:00,35.6,21.5,30.07,SE,135,0.0,1.6,56,0.00,,,0.00,WUHU216HW,2013-02-19 03:00:00,
2013-02-18 22:05:00,35.6,21.5,30.07,NNE,23,0.2,1.6,56,0.00,,,0.00,WUHU216HW,2013-02-19 03:05:00,
2013-02-18 22:10:00,35.6,21.1,30.07,NE,45,0.0,1.6,55,0.00,,,0.00,WUHU216HW,2013-02-19 03:10:00,
2013-02-18 22:15:00,35.6,21.5,30.07,West,270,0.4,2.5,56,0.00,,,0.00,WUHU216HW,2013-02-19 03:15:00,
2013-02-18 22:20:00,35.8,21.7,30.08,WSW,248,1.1,2.5,56,0.00,,,0.00,WUHU216HW,2013-02-19 03:20:00,
2013-02-18 22:25:00,36.0,21.8,30.08,NW,315,0.2,1.1,56,0.00,,,0.00,WUHU216HW,2013-02-19 03:25:00,
2013-02-18 22:30:00,35.8,21.7,30.08,ESE,113,0.4,1.1,56,0.00,,,0.00,WUHU216HW,2013-02-19 03:30:00,
2013-02-18 22:35:00,36.0,22.2,30.08,NNW,338,0.9,3.1,57,0.00,,,0.00,WUHU216HW,2013-02-19 03:35:00,
2013-02-18 22:40:00,36.0,21.8,30.07,SE,135,1.1,3.1,56,0.00,,,0.00,WUHU216HW,2013-02-19 03:40:00,
2013-02-18 22:45:00,36.0,21.8,30.07,SSE,158,0.4,2.5,56,0.00,,,0.00,WUHU216HW,2013-02-19 03:45:00,
2013-02-18 22:50:00,36.2,22.0,30.07,WSW,248,0.9,2.0,56,0.00,,,0.00,WUHU216HW,2013-02-19 03:50:00,
2013-02-18 22:56:00,36.2,22.0,30.07,SSW,203,1.3,2.5,56,0.00,,,0.00,WUHU216HW,2013-02-19 03:56:00,
2013-02-18 23:01:00,36.0,21.8,30.07,NNW,338,1.8,2.5,56,0.00,,,0.00,WUHU216HW,2013-02-19 04:01:00,
2013-02-18 23:06:00,36.0,21.8,30.06,West,270,1.8,2.0,56,0.00,,,0.00,WUHU216HW,2013-02-19 04:06:00,
2013-02-18 23:11:00,36.0,21.8,30.06,WSW,248,1.3,2.0,56,0.00,,,0.00,WUHU216HW,2013-02-19 04:11:00,
2013-02-18 23:16:00,36.0,21.8,30.06,ESE,113,1.6,2.2,56,0.00,,,0.00,WUHU216HW,2013-02-19 04:16:00,
2013-02-18 23:21:00,36.0,21.8,30.07,SW,225,1.6,3.4,56,0.00,,,0.00,WUHU216HW,2013-02-19 04:21:00,
2013-02-18 23:26:00,36.0,21.8,30.07,SW,225,1.1,3.4,56,0.00,,,0.00,WUHU216HW,2013-02-19 04:26:00,
2013-02-18 23:31:00,36.0,21.8,30.06,WSW,248,2.2,3.1,56,0.00,,,0.00,WUHU216HW,2013-02-19 04:31:00,
2013-02-18 23:36:00,36.0,21.8,30.07,NW,315,1.1,2.2,56,0.00,,,0.00,WUHU216HW,2013-02-19 04:36:00,
2013-02-18 23:41:00,36.0,21.8,30.06,SSW,203,3.6,3.6,56,0.00,,,0.00,WUHU216HW,2013-02-19 04:41:00,
2013-02-18 23:46:00,36.0,21.8,30.06,SSE,158,1.1,3.6,56,0.00,,,0.00,WUHU216HW,2013-02-19 04:46:00,
2013-02-18 23:51:00,35.8,21.7,30.06,NE,45,0.9,2.2,56,0.00,,,0.00,WUHU216HW,2013-02-19 04:51:00,
2013-02-18 23:56:00,35.8,21.7,30.06,SSE,158,1.1,2.2,56,0.00,,,0.00,WUHU216HW,2013-02-19 04:56:00,